Regional Weather Roundup
Issued by NWS

Home | Current Version | Previous Version | Graphics & Text | Print | Product List | Glossary On
Versions: 1 2 3 4 5 6 7 8 9 10 11 12 13 14 15 16 17 18 19 20 21 22 23 24 25 26 27 28 29 30 31 32 33 34 35 36 37 38 39 40 41 42 43 44 45 46 47 48 49 50
000
ASUS45 KBOU 240407
RWRCO

WEATHER ROUNDUP FOR COLORADO
NATIONAL WEATHER SERVICE DENVER/BOULDER CO
900 PM MST MON JAN 23 2017

NOTE: "FAIR" INDICATES FEW OR NO CLOUDS BELOW 12000 FEET WITH NO
SIGNIFICANT WEATHER AND/OR OBSTRUCTIONS TO VISIBILITY.

COZ001>005-013-030-031-240500-
...NORTHWEST COLORADO...

CITY           SKY/WX    TMP DP  RH WIND       PRES   REMARKS
CRAIG          FAIR      31  18  58 SW13      29.54R WCI  21
HAYDEN         NOT AVBL
MEEKER         CLOUDY    30  23  75 SW6       29.55S WCI  24
MOUNT WERNER   NOT AVBL
STEAMBOAT SPGS MOCLDY    27  18  67 SE6       29.55R WCI  21
WALDEN           N/A     21  14  73 SE10      29.54F WCI  10
$$

COZ006>008-011-240500-
...WEST CENTRAL VALLEYS...

CITY           SKY/WX    TMP DP  RH WIND       PRES   REMARKS
GRAND JUNCTION FAIR      32  31  96 W6        29.58S WCI  26
MONTROSE       CLOUDY    34  25  69 SE15      29.62F WCI  24
EAGLE          CLOUDY    28  25  86 E7        29.62S WCI  21
RIFLE          MOCLDY    30  29  96 CALM      29.57F
DELTA          FAIR      35  31  85 N8        29.62S WCI  28
NUCLA          CLOUDY    32  21  64 S14       29.63F WCI  22
$$

COZ017>023-064>068-240500-
...SOUTHWEST COLORADO...

CITY           SKY/WX    TMP DP  RH WIND       PRES   REMARKS
DURANGO        LGT SNOW  29  24  82 SW8       29.63R WCI  21
CORTEZ         LGT SNOW  29  28  96 E9        29.67S FOG     WCI  20
PAGOSA SPRINGS LGT SNOW  30  29  98 SW3       29.62S
TELLURIDE      NOT AVBL
WOLF CREEK PAS CLOUDY    14  14 100 SW25G44   29.60R WCI  -5
$$

COZ009-010-012-014-032>034-037-058>063-240500-
...CENTRAL COLORADO...

CITY           SKY/WX    TMP DP  RH WIND       PRES   REMARKS
ASPEN          LGT SNOW  24  23  96 N5        29.58R FOG     WCI  18
BUENA VISTA    CLOUDY    28  21  76 W17       29.58R WCI  16
COPPER MTN     LGT SNOW  14   9  79 MISG      29.55R VSB 3/4
BERTHOUD PASS  CLOUDY    10   0  61 MISG      29.55R
COTTONWOOD PAS LGT SNOW  25  21  86 W8        29.57R WCI  16
GUNNISON       MOCLDY    24  18  77 S5        29.60F WCI  18
KREMMLING      CLOUDY    34  21  60 SW12      29.58S WCI  25
LEADVILLE      LGT SNOW  19  15  84 NE7       29.55R FOG     WCI  10
MONARCH PASS   CLOUDY    12   9  85 W8        29.65S WCI   1
SALIDA         CLOUDY    32  22  66 W13       29.64S WCI  23
SUNLIGHT         N/A     12   9  85 SW16G25   29.58F WCI  -4
WILKERSON PASS SNOW     N/A N/A N/A SW9       29.58S VSB 1/2
$$

COZ069>075-240500-
...SAN LUIS VALLEY/SANGRE DE CRISTO MOUNTAINS...

CITY           SKY/WX    TMP DP  RH WIND       PRES   REMARKS
ALAMOSA        FAIR      28  26  92 S9        29.54F WCI  19
LA VETA PASS   LGT SNOW  23  23 100 NE25G44   29.54F VSB 1   WCI   7
SAGUACHE       LGT SNOW  28  25  86 N12       29.58R WCI  18
$$

COZ035-036-038>040-240500-
...NORTHERN COLORADO FRONT RANGE...

CITY           SKY/WX    TMP DP  RH WIND       PRES   REMARKS
DENVER INTL AP FAIR      34  27  75 W14       29.49R WCI  25
DMNS CITY PARK   N/A     37  27  67 NW6       29.51R
AURORA         PTCLDY    35  25  68 W8        29.49S WCI  28
FRONT RANGE AP PTCLDY    37  27  65 SW8       29.49S
ERIE MUNI ARPT CLOUDY    36  28  73 N13       29.52R
BOULDER MUN AP MOCLDY    37  28  70 N10G17    29.52R
CENTENNIAL     FAIR      39  26  59 W10       29.49S
BROOMFIELD     MOCLDY    37  28  70 NW13      29.51S
FORT COLLINS   CLOUDY    34  31  88 NW20      29.57R WCI  23
LONGMONT       CLOUDY    40  28  63 N16       29.55R
$$

COZ041-046-047-076>085-087-088-240500-
...PIKES PEAK/PALMER DIVIDE AND SOUTHERN FOOTHILLS...

CITY           SKY/WX    TMP DP  RH WIND       PRES   REMARKS
COLO. SPRINGS  FAIR      36  21  54 SE7       29.52F
A. F. ACADEMY  CLOUDY    36  21  55 NW9       29.51S
SCHRIEVER AFB  FAIR      30  21  69 MISG      29.52R
ELLICOTT       FAIR     N/A N/A N/A CALM      29.49F
FALCON         CLOUDY    36  22  56 SW9G17    29.53R
FORT CARSON    MOCLDY    40  24  52 W10       29.49F
LIMON          FAIR      38  24  57 W5        29.48F
MONUMENT HILL  CLOUDY    32  23  69 W8        29.52S WCI  25
TRINIDAD       FAIR      36  29  75 SW12      29.55F
$$

COZ042>045-048>051-090-091-240500-
...NORTHEAST COLORADO...

CITY           SKY/WX    TMP DP  RH WIND       PRES   REMARKS
GREELEY ARPT   CLOUDY    37  25  61 CALM      29.53R
AKRON          FAIR      32  25  75 E12       29.52S WCI  23
BURLINGTON     FAIR      32  27  81 N3        29.50F
WRAY           FAIR      32  28  86 CALM      29.55R
STERLING       FAIR      36  28  75 NE7       29.53S
HOLYOKE        FAIR      36  30  80 NE8       29.55F
FORT MORGAN    FAIR      35  25  66 NE10      29.52R WCI  27
$$

COZ086-089-092>099-240500-
...SOUTHEAST COLORADO...

CITY           SKY/WX    TMP DP  RH WIND       PRES   REMARKS
PUEBLO         FAIR      38  27  64 S5        29.49F
LA JUNTA       FAIR      37  29  72 SW9       29.51F
LAMAR          CLOUDY    35  28  75 W3        29.49F
SPRINGFIELD      N/A     32  24  72 SW8       29.53F WCI  25
$$



USA.gov is the U.S. government's official web portal to all federal, state and local government web resources and services.